Location: Newark
(43.0000°N, 1.6781°W)
Time: 00:38:13
(UTC+00:00)

deb Explorer IX - Pass Details

Date: 20 April 2021
Orbit: 541 x 1098 km, 38.8° (Epoch: 12 May)

Event Time Altitude Azimuth Distance (km) Brightness Sun altitude
Rises 07:38:04 0° 242° (WSW) 2,746 ? 24.7°
Reaches altitude 10° 07:40:19 10° 234° (SW) 1,896 ? 25.2°
Maximum altitude 07:44:22 40° 165° (SSE) 931 ? 25.9°
Drops below altitude 10° 07:48:59 10° 96° (E) 2,155 ? 26.7°
Sets 07:51:41 0° 89° (E) 3,174 ? 27.2°
